sat.trackr.live / text

‹ back to catalog

ONEWEB-0674

NORAD 55833 · 2023-029AP

PAYLOAD ACTIVE UNKNOWN

§ Identity

Operator
Country
UK
Launch date
2023-03-09
Launch site
AFETR
Launch vehicle
Mass (kg)
RCS (m²)

Purposes: comms

External: N2YO · Heavens-Above · Gunter

§ Orbital elements

Epoch: 2026-05-25T02:48:19.636416Z

Period
109.55 min
Inclination
87.8934°
Eccentricity
0.0002090
Mean motion
13.14502782 rev/d
Perigee alt
1,204.2 km
Apogee alt
1,207.4 km
Semi-major
7,583.9 km
B*
-2.1394e-4
RAAN
294.3212°
Arg perigee
86.8060°
Mean anomaly
273.3309°
Rev number
15,638

§ Raw data

ONEWEB-06741 55833U 23029AP  26145.11689394 -.00000067  00000+0 -21394-3 0  99952 55833  87.8934 294.3212 0002090  86.8060 273.3309 13.14502782156380

JSON: /api/v1/satellites/55833 · /tle

For live sub-satellite position, see the globe view (requires WebGL).

§ Visibility from observer

Set your observer location to see the next 7 days of passes ≥ 10°. The values pass through the URL so the page stays shareable.

No JS? Fill the form by hand. The geolocation button needs JavaScript.